LANDSAT 4 1 13367U 82072A 12034.52123646 .00002089 00000-0 14958-3 0 9694 2 13367 98.2653 23.1098 0017276 346.4413 13.6342 15.05567720588936 TDRS 1 1 13969U 83026B 12033.97187580 .00000028 00000-0 10000-3 0 3696 2 13969 13.7314 3.5136 0018279 116.1344 244.1049 0.98742798 78546 LANDSAT 5 1 14780U 84021A 12034.77095383 .00000150 00000-0 43231-4 0 6458 2 14780 98.1630 102.9788 0002768 6.1376 353.9848 14.57151495485414 ERBS 1 15354U 84108B 12033.76628782 .00003427 00000-0 17585-3 0 8628 2 15354 56.9840 144.1514 0019010 49.8787 310.3919 15.18991064497792 TDRS 3 1 19548U 88091B 12032.43765574 -.00000292 00000-0 10000-3 0 7998 2 19548 13.4904 29.7473 0013496 336.9088 233.0793 1.00279262 72760 TDRS 4 1 19883U 89021B 12032.99768267 -.00000008 00000-0 00000+0 0 1913 2 19883 10.7128 35.6372 0012587 203.3150 156.6920 0.98482170256330 HST 1 20580U 90037B 12033.80363283 .00001564 00000-0 10354-3 0 9369 2 20580 28.4724 309.2623 0003558 58.6018 301.4443 15.02156561994359 TDRS 5 1 21639U 91054B 12033.64648014 .00000099 00000-0 10000-3 0 07 2 21639 11.8787 44.0715 0015891 325.2660 188.1120 1.00267214 75099 TOPEX/POSEIDON 1 22076U 92052A 12033.95303084 -.00000038 00000-0 10000-3 0 8216 2 22076 66.0382 235.0121 0007123 265.4240 94.5962 12.80964078911308 TDRS 6 1 22314U 93003B 12032.29189145 .00000087 00000-0 10000-3 0 208 2 22314 11.2764 46.9410 0009279 345.5297 32.0726 1.00275218 69800 TDRS 7 1 23613U 95035B 12033.67324944 -.00000193 00000-0 10000-3 0 1513 2 23613 12.8981 37.3348 0032902 334.8489 87.3072 1.00275257 60629 RXTE (XTE) 1 23757U 95074A 12034.10301831 .00004320 00000-0 11552-3 0 5707 2 23757 22.9902 10.5452 0007851 176.5950 183.4628 15.33171796893028 TRMM 1 25063U 97074A 12034.55045121 .00015703 00000-0 21832-3 0 8923 2 25063 34.9621 99.6559 0000444 276.5785 83.4911 15.56053277809934 KIKU-7 (ETS-VII) 1 25064U 97074B 12034.47993694 .00005481 00000-0 18129-3 0 5421 2 25064 34.9709 70.2804 0005825 316.8644 43.1616 15.30663174788004 ISS (ZARYA) 1 25544U 98067A 12034.86863426 -.00001965 00000-0 -18124-4 0 9424 2 25544 51.6423 75.8121 0020339 2.5479 345.5829 15.58658818757067 LANDSAT 7 1 25682U 99020A 12034.81087687 .00000139 00000-0 40902-4 0 7831 2 25682 98.2145 104.9783 0000752 133.1403 226.9854 14.57104152681118 FUSE 1 1 25791U 99035A 12034.56002939 .00000277 00000-0 29049-4 0 1765 2 25791 24.9856 193.8452 0010691 294.0481 65.8912 14.41982778665297 TERRA 1 25994U 99068A 12034.82682894 -.00000722 00000-0 -15042-3 0 6904 2 25994 98.2065 110.8164 0000968 89.0175 271.1081 14.57087839645192 TDRS 8 1 26388U 00034A 12034.52665789 -.00000221 00000-0 10000-3 0 5796 2 26388 3.6422 79.3955 0003874 202.9044 129.4919 1.00276846 42563 EO-1 1 26619U 00075A 12034.76878400 .00000585 00000-0 12452-3 0 464 2 26619 98.0969 102.4344 0010535 168.6458 191.4953 14.62515144596787 TIMED 1 26998U 01055B 12034.14645132 .00000260 00000-0 34938-4 0 980 2 26998 74.0718 248.9398 0000949 135.8563 224.2686 14.84785316550095 TDRS 9 1 27389U 02011A 12031.93294410 -.00000259 00000-0 00000-0 0 8325 2 27389 1.5039 146.6116 0016024 228.1221 50.2792 1.00262214 37794 AQUA 1 27424U 02022A 12034.43445491 .00000493 00000-0 11952-3 0 2034 2 27424 98.2212 336.8264 0001196 83.5852 276.5471 14.57088175518748 TDRS 10 1 27566U 02055A 12034.62145667 .00000087 00000-0 00000+0 0 5849 2 27566 1.2413 62.9844 0013432 201.3357 278.2278 1.00274295 33648 SORCE 1 27651U 03004A 12034.04609968 .00000928 00000-0 12653-3 0 7111 2 27651 39.9973 50.6915 0026109 191.1513 168.8724 14.83281088488928 GALEX 1 27783U 03017A 12034.70139613 .00000426 00000-0 65401-4 0 4209 2 27783 28.9980 166.2352 0004103 186.3598 173.6992 14.60231344468416 GP-B 1 28230U 04014A 12034.23991624 .00000557 00000-0 77927-4 0 3313 2 28230 89.9205 150.1367 0002468 60.1890 299.9580 14.76463709419549 AURA 1 28376U 04026A 12034.02797842 .00000532 00000-0 12819-3 0 3614 2 28376 98.2226 338.5748 0001078 91.3020 268.8328 14.57099039401735 SWIFT 1 28485U 04047A 12034.21134878 .00001988 00000-0 14290-3 0 790 2 28485 20.5575 73.7673 0013811 113.7384 246.4525 14.94320527393489 THEMIS A 1 30580U 07004A 12034.20833333 -.00000065 00000-0 00000+0 0 2895 2 30580 6.5743 131.1578 7934366 307.4495 347.5366 1.00263771 17547 THEMIS D 1 30797U 07004D 12034.16666667 -.00000079 00000-0 00000+0 0 4431 2 30797 4.3887 64.9701 7696574 12.5342 347.2448 1.00278407 17386 THEMIS E 1 30798U 07004E 12034.16666667 -.00000102 00000-0 10000-3 0 4681 2 30798 3.6066 81.9233 7897912 358.5529 343.4855 1.00281638 17544 AIM 1 31304U 07015A 12034.31399688 .00002807 00000-0 26257-3 0 6024 2 31304 97.8244 143.0902 0009883 272.0956 87.9162 14.94899818260197 C/NOFS 1 32765U 08017A 12034.48639952 .00015072 00000-0 63639-3 0 9754 2 32765 13.0091 129.0608 0274976 207.8260 150.7013 14.92025356206399 FGRST (GLAST) 1 33053U 08029A 12033.20828694 .00000280 00000-0 00000+0 0 9765 2 33053 25.5831 350.7862 0012847 342.2586 17.7560 15.05989906200698 WISE 1 36119U 09071A 12034.88697494 .00001744 00000-0 97389-4 0 6210 2 36119 97.5175 40.9007 0003234 357.3019 2.8195 15.14834897118157